Date_Time,Julian_Date,Latitude,Longitude,Instrument_Depth,U,V,Speed,Direction
(yyyy-mm-dd hh:mn:ss UTC),(JD),(+ deg. North),(+ deg. East),(m),(cm/s),(cm/s),(cm/s),(deg True)
1982-04-01 18:00:00 UTC,2445061.250000,29.4519,-93.4333,0037,16.74,-2.95,17.0000,100.0000
1982-04-01 18:30:00 UTC,2445061.270833,29.4519,-93.4333,0037,17.54,-4.05,18.0000,103.0000
1982-04-01 19:00:00 UTC,2445061.291667,29.4519,-93.4333,0037,17.30,-4.96,18.0000,106.0000
1982-04-01 19:30:00 UTC,2445061.312500,29.4519,-93.4333,0037,18.26,-5.24,19.0000,106.0000
1982-04-01 20:00:00 UTC,2445061.333333,29.4519,-93.4333,0037,18.35,-4.92,19.0000,105.0000
1982-04-01 20:30:00 UTC,2445061.354167,29.4519,-93.4333,0037,19.41,-4.84,20.0000,104.0000
1982-04-01 21:00:00 UTC,2445061.375000,29.4519,-93.4333,0037,19.56,-4.16,20.0000,102.0000
1982-04-01 21:30:00 UTC,2445061.395833,29.4519,-93.4333,0037,17.67,-3.43,18.0000,101.0000
1982-04-01 22:00:00 UTC,2445061.416667,29.4519,-93.4333,0037,15.80,-2.50,16.0000,99.0000
1982-04-01 22:30:00 UTC,2445061.437500,29.4519,-93.4333,0037,14.94,-1.31,15.0000,95.0000
1982-04-01 23:00:00 UTC,2445061.458333,29.4519,-93.4333,0037,13.97,-0.98,14.0000,94.0000
1982-04-01 23:30:00 UTC,2445061.479167,29.4519,-93.4333,0037,13.95,-1.22,14.0000,95.0000
1982-04-02 00:00:00 UTC,2445061.500000,29.4519,-93.4333,0037,14.89,-1.83,15.0000,97.0000
1982-04-02 00:30:00 UTC,2445061.520833,29.4519,-93.4333,0037,14.62,-3.37,15.0000,103.0000
1982-04-02 01:00:00 UTC,2445061.541667,29.4519,-93.4333,0037,13.91,-5.62,15.0000,112.0000
1982-04-02 01:30:00 UTC,2445061.562500,29.4519,-93.4333,0037,12.99,-7.50,15.0000,120.0000
1982-04-02 02:00:00 UTC,2445061.583333,29.4519,-93.4333,0037,11.03,-8.62,14.0000,128.0000
1982-04-02 02:30:00 UTC,2445061.604167,29.4519,-93.4333,0037,9.35,-9.03,13.0000,134.0000
1982-04-02 03:00:00 UTC,2445061.625000,29.4519,-93.4333,0037,8.00,-10.24,13.0000,142.0000
1982-04-02 03:30:00 UTC,2445061.645833,29.4519,-93.4333,0037,3.31,-11.54,12.0000,164.0000
1982-04-02 04:00:00 UTC,2445061.666667,29.4519,-93.4333,0037,-3.11,-11.59,12.0000,195.0000
1982-04-02 04:30:00 UTC,2445061.687500,29.4519,-93.4333,0037,-6.89,-11.02,13.0000,212.0000
1982-04-02 05:00:00 UTC,2445061.708333,29.4519,-93.4333,0037,-8.34,-8.63,12.0000,224.0000
1982-04-02 05:30:00 UTC,2445061.729167,29.4519,-93.4333,0037,-8.99,-4.38,10.0000,244.0000
1982-04-02 06:00:00 UTC,2445061.750000,29.4519,-93.4333,0037,-9.93,-1.22,10.0000,263.0000
1982-04-02 06:30:00 UTC,2445061.770833,29.4519,-93.4333,0037,-9.98,0.70,10.0000,274.0000
1982-04-02 07:00:00 UTC,2445061.791667,29.4519,-93.4333,0037,-10.92,1.34,11.0000,277.0000
1982-04-02 07:30:00 UTC,2445061.812500,29.4519,-93.4333,0037,-10.92,1.34,11.0000,277.0000
1982-04-02 08:00:00 UTC,2445061.833333,29.4519,-93.4333,0037,-11.91,1.46,12.0000,277.0000
1982-04-02 08:30:00 UTC,2445061.854167,29.4519,-93.4333,0037,-10.89,1.53,11.0000,278.0000
1982-04-02 09:00:00 UTC,2445061.875000,29.4519,-93.4333,0037,-10.83,1.91,11.0000,280.0000
1982-04-02 09:30:00 UTC,2445061.895833,29.4519,-93.4333,0037,-9.74,2.25,10.0000,283.0000
1982-04-02 10:00:00 UTC,2445061.916667,29.4519,-93.4333,0037,-8.73,2.18,9.0000,284.0000
1982-04-02 10:30:00 UTC,2445061.937500,29.4519,-93.4333,0037,-8.83,1.72,9.0000,281.0000
1982-04-02 11:00:00 UTC,2445061.958333,29.4519,-93.4333,0037,-10.63,2.85,11.0000,285.0000
1982-04-02 11:30:00 UTC,2445061.979167,29.4519,-93.4333,0037,-10.69,5.45,12.0000,297.0000
1982-04-02 12:00:00 UTC,2445062.000000,29.4519,-93.4333,0037,-8.34,8.63,12.0000,316.0000
1982-04-02 12:30:00 UTC,2445062.020833,29.4519,-93.4333,0037,-7.04,13.24,15.0000,332.0000
1982-04-02 13:00:00 UTC,2445062.041667,29.4519,-93.4333,0037,-6.09,15.87,17.0000,339.0000
1982-04-02 13:30:00 UTC,2445062.062500,29.4519,-93.4333,0037,-5.53,16.07,17.0000,341.0000
1982-04-02 14:00:00 UTC,2445062.083333,29.4519,-93.4333,0037,-5.21,15.13,16.0000,341.0000
1982-04-02 14:30:00 UTC,2445062.104167,29.4519,-93.4333,0037,-4.66,12.14,13.0000,339.0000
1982-04-02 15:00:00 UTC,2445062.125000,29.4519,-93.4333,0037,-4.88,10.96,12.0000,336.0000
1982-04-02 15:30:00 UTC,2445062.145833,29.4519,-93.4333,0037,-6.36,12.47,14.0000,333.0000
1982-04-02 16:00:00 UTC,2445062.166667,29.4519,-93.4333,0037,-6.57,12.36,14.0000,332.0000
1982-04-02 16:30:00 UTC,2445062.187500,29.4519,-93.4333,0037,-5.63,10.60,12.0000,332.0000
1982-04-02 17:00:00 UTC,2445062.208333,29.4519,-93.4333,0037,-4.12,10.20,11.0000,338.0000
1982-04-02 17:30:00 UTC,2445062.229167,29.4519,-93.4333,0037,-3.22,10.52,11.0000,343.0000
1982-04-02 18:00:00 UTC,2445062.250000,29.4519,-93.4333,0037,-2.42,9.70,10.0000,346.0000
1982-04-02 18:30:00 UTC,2445062.270833,29.4519,-93.4333,0037,-1.69,6.79,7.0000,346.0000
1982-04-02 19:00:00 UTC,2445062.291667,29.4519,-93.4333,0037,-1.69,3.63,4.0000,335.0000
1982-04-02 19:30:00 UTC,2445062.312500,29.4519,-93.4333,0037,-0.98,0.17,1.0000,280.0000
1982-04-02 20:00:00 UTC,2445062.333333,29.4519,-93.4333,0037,-0.62,-2.93,3.0000,192.0000
1982-04-02 20:30:00 UTC,2445062.354167,29.4519,-93.4333,0037,-1.87,-4.64,5.0000,202.0000
1982-04-02 21:00:00 UTC,2445062.375000,29.4519,-93.4333,0037,-4.50,-5.36,7.0000,220.0000
1982-04-02 21:30:00 UTC,2445062.395833,29.4519,-93.4333,0037,-6.49,-2.62,7.0000,248.0000
1982-04-02 22:00:00 UTC,2445062.416667,29.4519,-93.4333,0037,-7.83,1.66,8.0000,282.0000
1982-04-02 22:30:00 UTC,2445062.437500,29.4519,-93.4333,0037,-7.19,3.51,8.0000,296.0000
1982-04-02 23:00:00 UTC,2445062.458333,29.4519,-93.4333,0037,-5.36,4.50,7.0000,310.0000
1982-04-02 23:30:00 UTC,2445062.479167,29.4519,-93.4333,0037,-3.61,4.79,6.0000,323.0000
1982-04-03 00:00:00 UTC,2445062.500000,29.4519,-93.4333,0037,-3.01,3.99,5.0000,323.0000
1982-04-03 00:30:00 UTC,2445062.520833,29.4519,-93.4333,0037,-3.47,3.60,5.0000,316.0000
1982-04-03 01:00:00 UTC,2445062.541667,29.4519,-93.4333,0037,-4.66,3.78,6.0000,309.0000
1982-04-03 01:30:00 UTC,2445062.562500,29.4519,-93.4333,0037,-6.99,5.66,9.0000,309.0000
1982-04-03 02:00:00 UTC,2445062.583333,29.4519,-93.4333,0037,-9.58,7.22,12.0000,307.0000
1982-04-03 02:30:00 UTC,2445062.604167,29.4519,-93.4333,0037,-10.50,5.82,12.0000,299.0000
1982-04-03 03:00:00 UTC,2445062.625000,29.4519,-93.4333,0037,-11.13,4.50,12.0000,292.0000
1982-04-03 03:30:00 UTC,2445062.645833,29.4519,-93.4333,0037,-10.52,3.22,11.0000,287.0000
1982-04-03 04:00:00 UTC,2445062.666667,29.4519,-93.4333,0037,-10.86,1.72,11.0000,279.0000
1982-04-03 04:30:00 UTC,2445062.687500,29.4519,-93.4333,0037,-11.00,-0.19,11.0000,269.0000
1982-04-03 05:00:00 UTC,2445062.708333,29.4519,-93.4333,0037,-10.92,-1.34,11.0000,263.0000
1982-04-03 05:30:00 UTC,2445062.729167,29.4519,-93.4333,0037,-9.85,-1.74,10.0000,260.0000
1982-04-03 06:00:00 UTC,2445062.750000,29.4519,-93.4333,0037,-9.61,-2.76,10.0000,254.0000
1982-04-03 06:30:00 UTC,2445062.770833,29.4519,-93.4333,0037,-9.06,-4.23,10.0000,245.0000
1982-04-03 07:00:00 UTC,2445062.791667,29.4519,-93.4333,0037,-9.62,-5.33,11.0000,241.0000
1982-04-03 07:30:00 UTC,2445062.812500,29.4519,-93.4333,0037,-11.68,-5.70,13.0000,244.0000
1982-04-03 08:00:00 UTC,2445062.833333,29.4519,-93.4333,0037,-13.16,-4.79,14.0000,250.0000
1982-04-03 08:30:00 UTC,2445062.854167,29.4519,-93.4333,0037,-14.72,-2.86,15.0000,259.0000
1982-04-03 09:00:00 UTC,2445062.875000,29.4519,-93.4333,0037,-13.92,-1.46,14.0000,264.0000
1982-04-03 09:30:00 UTC,2445062.895833,29.4519,-93.4333,0037,-13.99,-0.49,14.0000,268.0000
1982-04-03 10:00:00 UTC,2445062.916667,29.4519,-93.4333,0037,-12.97,0.91,13.0000,274.0000
1982-04-03 10:30:00 UTC,2445062.937500,29.4519,-93.4333,0037,-13.86,1.95,14.0000,278.0000
1982-04-03 11:00:00 UTC,2445062.958333,29.4519,-93.4333,0037,-14.72,2.86,15.0000,281.0000
1982-04-03 11:30:00 UTC,2445062.979167,29.4519,-93.4333,0037,-16.63,3.53,17.0000,282.0000
1982-04-03 12:00:00 UTC,2445063.000000,29.4519,-93.4333,0037,-17.30,4.96,18.0000,286.0000
1982-04-03 12:30:00 UTC,2445063.020833,29.4519,-93.4333,0037,-16.57,7.03,18.0000,293.0000
1982-04-03 13:00:00 UTC,2445063.041667,29.4519,-93.4333,0037,-15.17,11.43,19.0000,307.0000
1982-04-03 13:30:00 UTC,2445063.062500,29.4519,-93.4333,0037,-12.96,13.90,19.0000,317.0000
1982-04-03 14:00:00 UTC,2445063.083333,29.4519,-93.4333,0037,-13.21,10.70,17.0000,309.0000
1982-04-03 14:30:00 UTC,2445063.104167,29.4519,-93.4333,0037,-16.17,5.25,17.0000,288.0000
1982-04-03 15:00:00 UTC,2445063.125000,29.4519,-93.4333,0037,-18.90,1.99,19.0000,276.0000
1982-04-03 15:30:00 UTC,2445063.145833,29.4519,-93.4333,0037,-21.00,0.37,21.0000,271.0000
1982-04-03 16:00:00 UTC,2445063.166667,29.4519,-93.4333,0037,-23.00,-0.40,23.0000,269.0000
1982-04-03 16:30:00 UTC,2445063.187500,29.4519,-93.4333,0037,-26.00,-0.00,26.0000,270.0000
1982-04-03 17:00:00 UTC,2445063.208333,29.4519,-93.4333,0037,-27.00,0.47,27.0000,271.0000
1982-04-03 17:30:00 UTC,2445063.229167,29.4519,-93.4333,0037,-24.98,0.87,25.0000,272.0000
1982-04-03 18:00:00 UTC,2445063.250000,29.4519,-93.4333,0037,-23.00,-0.00,23.0000,270.0000
1982-04-03 18:30:00 UTC,2445063.270833,29.4519,-93.4333,0037,-20.00,-0.35,20.0000,269.0000
1982-04-03 19:00:00 UTC,2445063.291667,29.4519,-93.4333,0037,-17.00,-0.30,17.0000,269.0000
1982-04-03 19:30:00 UTC,2445063.312500,29.4519,-93.4333,0037,-16.00,-0.28,16.0000,269.0000
1982-04-03 20:00:00 UTC,2445063.333333,29.4519,-93.4333,0037,-13.97,0.98,14.0000,274.0000
1982-04-03 20:30:00 UTC,2445063.354167,29.4519,-93.4333,0037,-10.98,0.58,11.0000,273.0000
1982-04-03 21:00:00 UTC,2445063.375000,29.4519,-93.4333,0037,-10.67,-2.66,11.0000,256.0000
1982-04-03 21:30:00 UTC,2445063.395833,29.4519,-93.4333,0037,-11.68,-5.70,13.0000,244.0000
1982-04-03 22:00:00 UTC,2445063.416667,29.4519,-93.4333,0037,-13.86,-8.00,16.0000,240.0000
1982-04-03 22:30:00 UTC,2445063.437500,29.4519,-93.4333,0037,-15.15,-7.72,17.0000,243.0000
1982-04-03 23:00:00 UTC,2445063.458333,29.4519,-93.4333,0037,-13.91,-5.62,15.0000,248.0000
1982-04-03 23:30:00 UTC,2445063.479167,29.4519,-93.4333,0037,-12.36,-4.02,13.0000,252.0000
1982-04-04 00:00:00 UTC,2445063.500000,29.4519,-93.4333,0037,-9.51,-3.09,10.0000,252.0000
1982-04-04 00:30:00 UTC,2445063.520833,29.4519,-93.4333,0037,-7.56,-2.60,8.0000,251.0000
1982-04-04 01:00:00 UTC,2445063.541667,29.4519,-93.4333,0037,-6.76,-1.81,7.0000,255.0000
1982-04-04 01:30:00 UTC,2445063.562500,29.4519,-93.4333,0037,-9.00,-0.16,9.0000,269.0000
1982-04-04 02:00:00 UTC,2445063.583333,29.4519,-93.4333,0037,-11.88,1.67,12.0000,278.0000
1982-04-04 02:30:00 UTC,2445063.604167,29.4519,-93.4333,0037,-12.67,2.92,13.0000,283.0000
1982-04-04 03:00:00 UTC,2445063.625000,29.4519,-93.4333,0037,-12.36,4.02,13.0000,288.0000
1982-04-04 03:30:00 UTC,2445063.645833,29.4519,-93.4333,0037,-12.89,5.47,14.0000,293.0000
1982-04-04 04:00:00 UTC,2445063.666667,29.4519,-93.4333,0037,-12.47,6.36,14.0000,297.0000
1982-04-04 04:30:00 UTC,2445063.687500,29.4519,-93.4333,0037,-11.87,7.42,14.0000,302.0000
1982-04-04 05:00:00 UTC,2445063.708333,29.4519,-93.4333,0037,-10.90,7.08,13.0000,303.0000
1982-04-04 05:30:00 UTC,2445063.729167,29.4519,-93.4333,0037,-11.48,6.10,13.0000,298.0000
1982-04-04 06:00:00 UTC,2445063.750000,29.4519,-93.4333,0037,-11.97,5.08,13.0000,293.0000
1982-04-04 06:30:00 UTC,2445063.770833,29.4519,-93.4333,0037,-12.36,4.02,13.0000,288.0000
1982-04-04 07:00:00 UTC,2445063.791667,29.4519,-93.4333,0037,-11.64,2.90,12.0000,284.0000
1982-04-04 07:30:00 UTC,2445063.812500,29.4519,-93.4333,0037,-10.89,1.53,11.0000,278.0000
1982-04-04 08:00:00 UTC,2445063.833333,29.4519,-93.4333,0037,-11.00,0.19,11.0000,271.0000
1982-04-04 08:30:00 UTC,2445063.854167,29.4519,-93.4333,0037,-10.99,-0.38,11.0000,268.0000
1982-04-04 09:00:00 UTC,2445063.875000,29.4519,-93.4333,0037,-10.97,-0.77,11.0000,266.0000
1982-04-04 09:30:00 UTC,2445063.895833,29.4519,-93.4333,0037,-11.88,-1.67,12.0000,262.0000
1982-04-04 10:00:00 UTC,2445063.916667,29.4519,-93.4333,0037,-12.76,-2.48,13.0000,259.0000
1982-04-04 10:30:00 UTC,2445063.937500,29.4519,-93.4333,0037,-14.85,-2.09,15.0000,262.0000
1982-04-04 11:00:00 UTC,2445063.958333,29.4519,-93.4333,0037,-18.95,1.33,19.0000,274.0000
1982-04-04 11:30:00 UTC,2445063.979167,29.4519,-93.4333,0037,-21.35,5.32,22.0000,284.0000
1982-04-04 12:00:00 UTC,2445064.000000,29.4519,-93.4333,0037,-21.61,7.87,23.0000,290.0000
1982-04-04 12:30:00 UTC,2445064.020833,29.4519,-93.4333,0037,-20.54,7.88,22.0000,291.0000
1982-04-04 13:00:00 UTC,2445064.041667,29.4519,-93.4333,0037,-20.80,7.16,22.0000,289.0000
1982-04-04 13:30:00 UTC,2445064.062500,29.4519,-93.4333,0037,-22.95,7.02,24.0000,287.0000
1982-04-04 14:00:00 UTC,2445064.083333,29.4519,-93.4333,0037,-25.82,7.89,27.0000,287.0000
1982-04-04 14:30:00 UTC,2445064.104167,29.4519,-93.4333,0037,-28.69,8.77,30.0000,287.0000
1982-04-04 15:00:00 UTC,2445064.125000,29.4519,-93.4333,0037,-31.38,10.20,33.0000,288.0000
1982-04-04 15:30:00 UTC,2445064.145833,29.4519,-93.4333,0037,-31.01,11.29,33.0000,290.0000
1982-04-04 16:00:00 UTC,2445064.166667,29.4519,-93.4333,0037,-30.60,12.36,33.0000,292.0000
1982-04-04 16:30:00 UTC,2445064.187500,29.4519,-93.4333,0037,-28.94,11.11,31.0000,291.0000
1982-04-04 17:00:00 UTC,2445064.208333,29.4519,-93.4333,0037,-27.25,9.92,29.0000,290.0000
1982-04-04 17:30:00 UTC,2445064.229167,29.4519,-93.4333,0037,-25.53,8.79,27.0000,289.0000
1982-04-04 18:00:00 UTC,2445064.250000,29.4519,-93.4333,0037,-24.86,7.60,26.0000,287.0000
1982-04-04 18:30:00 UTC,2445064.270833,29.4519,-93.4333,0037,-23.38,5.40,24.0000,283.0000
1982-04-04 19:00:00 UTC,2445064.291667,29.4519,-93.4333,0037,-21.88,2.30,22.0000,276.0000
1982-04-04 19:30:00 UTC,2445064.312500,29.4519,-93.4333,0037,-20.97,-1.10,21.0000,267.0000
1982-04-04 20:00:00 UTC,2445064.333333,29.4519,-93.4333,0037,-21.60,-4.20,22.0000,259.0000
1982-04-04 20:30:00 UTC,2445064.354167,29.4519,-93.4333,0037,-22.11,-6.34,23.0000,254.0000
1982-04-04 21:00:00 UTC,2445064.375000,29.4519,-93.4333,0037,-24.27,-9.32,26.0000,249.0000
1982-04-04 21:30:00 UTC,2445064.395833,29.4519,-93.4333,0037,-26.28,-12.26,29.0000,245.0000
1982-04-04 22:00:00 UTC,2445064.416667,29.4519,-93.4333,0037,-28.51,-14.53,32.0000,243.0000
1982-04-04 22:30:00 UTC,2445064.437500,29.4519,-93.4333,0037,-29.66,-14.47,33.0000,244.0000
1982-04-04 23:00:00 UTC,2445064.458333,29.4519,-93.4333,0037,-29.23,-13.02,32.0000,246.0000
1982-04-04 23:30:00 UTC,2445064.479167,29.4519,-93.4333,0037,-28.94,-11.11,31.0000,249.0000
1982-04-05 00:00:00 UTC,2445064.500000,29.4519,-93.4333,0037,-28.69,-8.77,30.0000,253.0000
1982-04-05 00:30:00 UTC,2445064.520833,29.4519,-93.4333,0037,-29.11,-7.26,30.0000,256.0000
1982-04-05 01:00:00 UTC,2445064.541667,29.4519,-93.4333,0037,-28.37,-6.03,29.0000,258.0000
1982-04-05 01:30:00 UTC,2445064.562500,29.4519,-93.4333,0037,-28.56,-5.04,29.0000,260.0000
1982-04-05 02:00:00 UTC,2445064.583333,29.4519,-93.4333,0037,-28.72,-4.04,29.0000,262.0000
1982-04-05 02:30:00 UTC,2445064.604167,29.4519,-93.4333,0037,-27.89,-2.44,28.0000,265.0000
1982-04-05 03:00:00 UTC,2445064.625000,29.4519,-93.4333,0037,-25.98,-0.91,26.0000,268.0000
1982-04-05 03:30:00 UTC,2445064.645833,29.4519,-93.4333,0037,-24.00,-0.00,24.0000,270.0000
1982-04-05 04:00:00 UTC,2445064.666667,29.4519,-93.4333,0037,-22.99,0.80,23.0000,272.0000
1982-04-05 04:30:00 UTC,2445064.687500,29.4519,-93.4333,0037,-23.00,0.40,23.0000,271.0000
1982-04-05 05:00:00 UTC,2445064.708333,29.4519,-93.4333,0037,-22.91,-2.00,23.0000,265.0000
1982-04-05 05:30:00 UTC,2445064.729167,29.4519,-93.4333,0037,-24.54,-4.77,25.0000,259.0000
1982-04-05 06:00:00 UTC,2445064.750000,29.4519,-93.4333,0037,-26.20,-6.53,27.0000,256.0000
1982-04-05 06:30:00 UTC,2445064.770833,29.4519,-93.4333,0037,-27.73,-8.48,29.0000,253.0000
1982-04-05 07:00:00 UTC,2445064.791667,29.4519,-93.4333,0037,-28.53,-9.27,30.0000,252.0000
1982-04-05 07:30:00 UTC,2445064.812500,29.4519,-93.4333,0037,-27.07,-10.39,29.0000,249.0000
1982-04-05 08:00:00 UTC,2445064.833333,29.4519,-93.4333,0037,-26.69,-11.33,29.0000,247.0000
1982-04-05 08:30:00 UTC,2445064.854167,29.4519,-93.4333,0037,-25.58,-11.39,28.0000,246.0000
1982-04-05 09:00:00 UTC,2445064.875000,29.4519,-93.4333,0037,-24.47,-11.41,27.0000,245.0000
1982-04-05 09:30:00 UTC,2445064.895833,29.4519,-93.4333,0037,-23.37,-11.40,26.0000,244.0000
1982-04-05 10:00:00 UTC,2445064.916667,29.4519,-93.4333,0037,-22.07,-11.74,25.0000,242.0000
1982-04-05 10:30:00 UTC,2445064.937500,29.4519,-93.4333,0037,-22.74,-12.61,26.0000,241.0000
1982-04-05 11:00:00 UTC,2445064.958333,29.4519,-93.4333,0037,-22.28,-11.35,25.0000,243.0000
1982-04-05 11:30:00 UTC,2445064.979167,29.4519,-93.4333,0037,-22.25,-8.99,24.0000,248.0000
1982-04-05 12:00:00 UTC,2445065.000000,29.4519,-93.4333,0037,-21.25,-5.69,22.0000,255.0000
1982-04-05 12:30:00 UTC,2445065.020833,29.4519,-93.4333,0037,-18.82,-2.64,19.0000,262.0000
1982-04-05 13:00:00 UTC,2445065.041667,29.4519,-93.4333,0037,-17.00,-0.00,17.0000,270.0000
1982-04-05 13:30:00 UTC,2445065.062500,29.4519,-93.4333,0037,-15.96,1.12,16.0000,274.0000
1982-04-05 14:00:00 UTC,2445065.083333,29.4519,-93.4333,0037,-15.84,2.23,16.0000,278.0000
1982-04-05 14:30:00 UTC,2445065.104167,29.4519,-93.4333,0037,-15.65,3.33,16.0000,282.0000
1982-04-05 15:00:00 UTC,2445065.125000,29.4519,-93.4333,0037,-15.59,3.60,16.0000,283.0000
1982-04-05 15:30:00 UTC,2445065.145833,29.4519,-93.4333,0037,-15.59,3.60,16.0000,283.0000
1982-04-05 16:00:00 UTC,2445065.166667,29.4519,-93.4333,0037,-14.34,4.39,15.0000,287.0000
1982-04-05 16:30:00 UTC,2445065.187500,29.4519,-93.4333,0037,-12.79,5.69,14.0000,294.0000
1982-04-05 17:00:00 UTC,2445065.208333,29.4519,-93.4333,0037,-10.39,6.00,12.0000,300.0000
1982-04-05 17:30:00 UTC,2445065.229167,29.4519,-93.4333,0037,-9.71,5.16,11.0000,298.0000
1982-04-05 18:00:00 UTC,2445065.250000,29.4519,-93.4333,0037,-9.40,3.42,10.0000,290.0000
1982-04-05 18:30:00 UTC,2445065.270833,29.4519,-93.4333,0037,-8.86,1.56,9.0000,280.0000
1982-04-05 19:00:00 UTC,2445065.291667,29.4519,-93.4333,0037,-8.99,-0.31,9.0000,268.0000
1982-04-05 19:30:00 UTC,2445065.312500,29.4519,-93.4333,0037,-7.73,-2.07,8.0000,255.0000
1982-04-05 20:00:00 UTC,2445065.333333,29.4519,-93.4333,0037,-5.66,-4.11,7.0000,234.0000
1982-04-05 20:30:00 UTC,2445065.354167,29.4519,-93.4333,0037,-4.24,-6.78,8.0000,212.0000
1982-04-05 21:00:00 UTC,2445065.375000,29.4519,-93.4333,0037,-3.91,-9.21,10.0000,203.0000
1982-04-05 21:30:00 UTC,2445065.395833,29.4519,-93.4333,0037,-3.94,-10.27,11.0000,201.0000
1982-04-05 22:00:00 UTC,2445065.416667,29.4519,-93.4333,0037,-3.40,-10.46,11.0000,198.0000
1982-04-05 22:30:00 UTC,2445065.437500,29.4519,-93.4333,0037,-2.42,-9.70,10.0000,194.0000
1982-04-05 23:00:00 UTC,2445065.458333,29.4519,-93.4333,0037,-1.87,-8.80,9.0000,192.0000
1982-04-05 23:30:00 UTC,2445065.479167,29.4519,-93.4333,0037,-0.61,-6.97,7.0000,185.0000
1982-04-06 00:00:00 UTC,2445065.500000,29.4519,-93.4333,0037,0.94,-5.93,6.0000,171.0000
1982-04-06 00:30:00 UTC,2445065.520833,29.4519,-93.4333,0037,2.72,-5.35,6.0000,153.0000
1982-04-06 01:00:00 UTC,2445065.541667,29.4519,-93.4333,0037,3.77,-3.28,5.0000,131.0000
1982-04-06 01:30:00 UTC,2445065.562500,29.4519,-93.4333,0037,3.85,-1.10,4.0000,106.0000
1982-04-06 02:00:00 UTC,2445065.583333,29.4519,-93.4333,0037,3.63,1.69,4.0000,65.0000
1982-04-06 02:30:00 UTC,2445065.604167,29.4519,-93.4333,0037,2.78,2.88,4.0000,44.0000
1982-04-06 03:00:00 UTC,2445065.625000,29.4519,-93.4333,0037,2.68,2.97,4.0000,42.0000
1982-04-06 03:30:00 UTC,2445065.645833,29.4519,-93.4333,0037,2.01,2.23,3.0000,42.0000
1982-04-06 04:00:00 UTC,2445065.666667,29.4519,-93.4333,0037,1.41,1.41,2.0000,45.0000
1982-04-06 04:30:00 UTC,2445065.687500,29.4519,-93.4333,0037,1.46,1.36,2.0000,47.0000
1982-04-06 05:00:00 UTC,2445065.708333,29.4519,-93.4333,0037,-0.00,0.00,0.0000,290.0000
1982-04-06 05:30:00 UTC,2445065.729167,29.4519,-93.4333,0037,-1.70,-1.06,2.0000,238.0000
1982-04-06 06:00:00 UTC,2445065.750000,29.4519,-93.4333,0037,-3.35,-2.18,4.0000,237.0000
1982-04-06 06:30:00 UTC,2445065.770833,29.4519,-93.4333,0037,-5.44,-2.54,6.0000,245.0000
1982-04-06 07:00:00 UTC,2445065.791667,29.4519,-93.4333,0037,-7.31,-3.25,8.0000,246.0000
1982-04-06 07:30:00 UTC,2445065.812500,29.4519,-93.4333,0037,-8.57,-5.15,10.0000,239.0000
1982-04-06 08:00:00 UTC,2445065.833333,29.4519,-93.4333,0037,-8.90,-6.47,11.0000,234.0000
1982-04-06 08:30:00 UTC,2445065.854167,29.4519,-93.4333,0037,-9.23,-5.99,11.0000,237.0000
1982-04-06 09:00:00 UTC,2445065.875000,29.4519,-93.4333,0037,-8.57,-5.15,10.0000,239.0000
1982-04-06 09:30:00 UTC,2445065.895833,29.4519,-93.4333,0037,-8.09,-5.88,10.0000,234.0000
1982-04-06 10:00:00 UTC,2445065.916667,29.4519,-93.4333,0037,-8.17,-7.36,11.0000,228.0000
1982-04-06 10:30:00 UTC,2445065.937500,29.4519,-93.4333,0037,-8.43,-7.07,11.0000,230.0000
1982-04-06 11:00:00 UTC,2445065.958333,29.4519,-93.4333,0037,-9.33,-5.83,11.0000,238.0000
1982-04-06 11:30:00 UTC,2445065.979167,29.4519,-93.4333,0037,-10.96,-4.88,12.0000,246.0000
1982-04-06 12:00:00 UTC,2445066.000000,29.4519,-93.4333,0037,-12.61,-3.15,13.0000,256.0000
1982-04-06 12:30:00 UTC,2445066.020833,29.4519,-93.4333,0037,-13.95,-1.22,14.0000,265.0000
1982-04-06 13:00:00 UTC,2445066.041667,29.4519,-93.4333,0037,-15.96,1.12,16.0000,274.0000
1982-04-06 13:30:00 UTC,2445066.062500,29.4519,-93.4333,0037,-16.63,3.53,17.0000,282.0000
1982-04-06 14:00:00 UTC,2445066.083333,29.4519,-93.4333,0037,-15.13,5.21,16.0000,289.0000
1982-04-06 14:30:00 UTC,2445066.104167,29.4519,-93.4333,0037,-15.65,6.64,17.0000,293.0000
1982-04-06 15:00:00 UTC,2445066.125000,29.4519,-93.4333,0037,-16.57,7.03,18.0000,293.0000
1982-04-06 15:30:00 UTC,2445066.145833,29.4519,-93.4333,0037,-19.47,7.87,21.0000,292.0000
1982-04-06 16:00:00 UTC,2445066.166667,29.4519,-93.4333,0037,-22.41,8.60,24.0000,291.0000
1982-04-06 16:30:00 UTC,2445066.187500,29.4519,-93.4333,0037,-25.82,7.89,27.0000,287.0000
1982-04-06 17:00:00 UTC,2445066.208333,29.4519,-93.4333,0037,-29.23,6.75,30.0000,283.0000
1982-04-06 17:30:00 UTC,2445066.229167,29.4519,-93.4333,0037,-30.32,6.45,31.0000,282.0000
1982-04-06 18:00:00 UTC,2445066.250000,29.4519,-93.4333,0037,-31.41,6.11,32.0000,281.0000
1982-04-06 18:30:00 UTC,2445066.270833,29.4519,-93.4333,0037,-30.83,3.24,31.0000,276.0000
1982-04-06 19:00:00 UTC,2445066.291667,29.4519,-93.4333,0037,-30.98,-1.08,31.0000,268.0000
1982-04-06 19:30:00 UTC,2445066.312500,29.4519,-93.4333,0037,-28.72,-4.04,29.0000,262.0000
1982-04-06 20:00:00 UTC,2445066.333333,29.4519,-93.4333,0037,-26.50,-5.15,27.0000,259.0000
1982-04-06 20:30:00 UTC,2445066.354167,29.4519,-93.4333,0037,-24.26,-6.05,25.0000,256.0000
1982-04-06 21:00:00 UTC,2445066.375000,29.4519,-93.4333,0037,-20.92,-6.80,22.0000,252.0000
1982-04-06 21:30:00 UTC,2445066.395833,29.4519,-93.4333,0037,-19.33,-8.21,21.0000,247.0000
1982-04-06 22:00:00 UTC,2445066.416667,29.4519,-93.4333,0037,-18.71,-9.53,21.0000,243.0000
1982-04-06 22:30:00 UTC,2445066.437500,29.4519,-93.4333,0037,-19.24,-10.67,22.0000,241.0000
1982-04-06 23:00:00 UTC,2445066.458333,29.4519,-93.4333,0037,-19.42,-10.33,22.0000,242.0000
1982-04-06 23:30:00 UTC,2445066.479167,29.4519,-93.4333,0037,-19.03,-8.88,21.0000,245.0000
1982-04-07 00:00:00 UTC,2445066.500000,29.4519,-93.4333,0037,-19.61,-7.53,21.0000,249.0000
1982-04-07 00:30:00 UTC,2445066.520833,29.4519,-93.4333,0037,-20.92,-6.80,22.0000,252.0000
1982-04-07 01:00:00 UTC,2445066.541667,29.4519,-93.4333,0037,-21.99,-6.72,23.0000,253.0000
1982-04-07 01:30:00 UTC,2445066.562500,29.4519,-93.4333,0037,-23.07,-6.62,24.0000,254.0000
1982-04-07 02:00:00 UTC,2445066.583333,29.4519,-93.4333,0037,-22.41,-5.17,23.0000,257.0000
1982-04-07 02:30:00 UTC,2445066.604167,29.4519,-93.4333,0037,-22.58,-4.39,23.0000,259.0000
1982-04-07 03:00:00 UTC,2445066.625000,29.4519,-93.4333,0037,-23.29,-5.81,24.0000,256.0000
1982-04-07 03:30:00 UTC,2445066.645833,29.4519,-93.4333,0037,-24.73,-8.03,26.0000,252.0000
1982-04-07 04:00:00 UTC,2445066.666667,29.4519,-93.4333,0037,-24.58,-8.46,26.0000,251.0000
1982-04-07 04:30:00 UTC,2445066.687500,29.4519,-93.4333,0037,-23.18,-6.21,24.0000,255.0000
1982-04-07 05:00:00 UTC,2445066.708333,29.4519,-93.4333,0037,-20.88,-2.20,21.0000,264.0000
1982-04-07 05:30:00 UTC,2445066.729167,29.4519,-93.4333,0037,-19.00,-0.00,19.0000,270.0000